,,Stat6,,Stat2,,Stat8,,Stat9,,Stat10,,Wind1,,Wind1,
time,status,PA1M_AVG,status,PR1M_SUM,status,RH1M_AVG,status,SR1M_AVG,status,TA1M_AVG,status,W1dAve1m,status,W1sAve1m,
2008-10-24, 00:00:00,VALID,919.098,VALID,0,VALID,100,VALID,-0.0339617,VALID,20.0018,VALID,30,VALID,0.0678267,
2008-10-24, 00:01:00,VALID,919.076,VALID,0,VALID,100,VALID,-0.0169808,VALID,20.0018,VALID,14,VALID,0,
2008-10-24, 00:02:00,VALID,919.059,VALID,0,VALID,100,VALID,-0.0169808,VALID,19.9918,VALID,14,VALID,0,
2008-10-24, 00:03:00,VALID,919.06,VALID,0,VALID,100,VALID,0,VALID,19.9951,VALID,14,VALID,0,
2008-10-24, 00:04:00,VALID,919.037,VALID,0,VALID,100,VALID,0,VALID,19.9853,VALID,14,VALID,0,
2008-10-24, 00:05:00,VALID,919.027,VALID,0,VALID,100,VALID,0,VALID,19.9821,VALID,14,VALID,0,
2008-10-24, 00:06:00,VALID,919.006,VALID,0,VALID,100,VALID,0.0169808,VALID,19.9786,VALID,14,VALID,0,
2008-10-24, 00:07:00,VALID,918.995,VALID,0,VALID,100,VALID,0,VALID,19.9754,VALID,14,VALID,0,
2008-10-24, 00:08:00,VALID,918.965,VALID,0,VALID,100,VALID,-0.0169808,VALID,19.9754,VALID,14,VALID,0,
2008-10-24, 00:09:00,VALID,918.941,VALID,0,VALID,100,VALID,0,VALID,19.9881,VALID,14,VALID,0,
2008-10-24, 00:10:00,VALID,918.93,VALID,0,VALID,100,VALID,-0.0169808,VALID,19.9983,VALID,14,VALID,0,
2008-10-24, 00:11:00,VALID,918.926,VALID,0,VALID,100,VALID,0,VALID,19.9786,VALID,14,VALID,0,
2008-10-24, 00:12:00,VALID,918.924,VALID,0,VALID,100,VALID,0,VALID,19.9464,VALID,14,VALID,0,
2008-10-24, 00:13:00,VALID,918.928,VALID,0,VALID,100,VALID,-0.0169808,VALID,19.9274,VALID,14,VALID,0,
2008-10-24, 00:14:00,VALID,918.914,VALID,0,VALID,100,VALID,-0.0169808,VALID,19.904,VALID,14,VALID,0,
2008-10-24, 00:15:00,VALID,918.922,VALID,0,VALID,100,VALID,0,VALID,19.904,VALID,14,VALID,0,
2008-10-24, 00:16:00,VALID,918.909,VALID,0,VALID,100,VALID,0,VALID,19.8843,VALID,14,VALID,0,
2008-10-24, 00:17:00,VALID,918.908,VALID,0,VALID,100,VALID,0,VALID,19.891,VALID,14,VALID,0,
2008-10-24, 00:18:00,VALID,918.882,VALID,0,VALID,100,VALID,-0.0169808,VALID,19.9007,VALID,14,VALID,0,
2008-10-24, 00:19:00,VALID,918.854,VALID,0,VALID,100,VALID,-0.0509425,VALID,19.895,VALID,14,VALID,0,
2008-10-24, 00:20:00,VALID,918.82,VALID,0,VALID,100,VALID,-0.101885,VALID,19.896,VALID,14,VALID,0,
2008-10-24, 00:21:00,VALID,918.8,VALID,0,VALID,100,VALID,-0.0849042,VALID,19.9055,VALID,14,VALID,0,
2008-10-24, 00:22:00,VALID,918.781,VALID,0,VALID,100,VALID,-0.101885,VALID,19.925,VALID,14,VALID,0,
2008-10-24, 00:23:00,VALID,918.763,VALID,0,VALID,100,VALID,-0.152827,VALID,19.9352,VALID,14,VALID,0,
2008-10-24, 00:24:00,VALID,918.741,VALID,0,VALID,99.7345,VALID,-0.101885,VALID,19.9319,VALID,14,VALID,0,
2008-10-24, 00:25:00,VALID,918.725,VALID,0,VALID,99.6404,VALID,-0.0849042,VALID,19.9247,VALID,14,VALID,0,
2008-10-24, 00:26:00,VALID,918.712,VALID,0,VALID,99.5628,VALID,-0.101885,VALID,19.9474,VALID,14,VALID,0,
2008-10-24, 00:27:00,VALID,918.699,VALID,0,VALID,99.3886,VALID,-0.101885,VALID,19.9477,VALID,14,VALID,0,
2008-10-24, 00:28:00,VALID,918.697,VALID,0,VALID,99.0898,VALID,-0.101885,VALID,19.9152,VALID,14,VALID,0,
2008-10-24, 00:29:00,VALID,918.682,VALID,0,VALID,98.8825,VALID,-0.101885,VALID,19.8955,VALID,14,VALID,0,
2008-10-24, 00:30:00,VALID,918.651,VALID,0,VALID,98.9842,VALID,-0.101885,VALID,19.8925,VALID,14,VALID,0,
2008-10-24, 00:31:00,VALID,918.652,VALID,0,VALID,98.8164,VALID,-0.101885,VALID,19.8893,VALID,14,VALID,0,
2008-10-24, 00:32:00,VALID,918.639,VALID,0,VALID,98.66,VALID,-0.101885,VALID,19.886,VALID,14,VALID,0,
2008-10-24, 00:33:00,VALID,918.614,VALID,0,VALID,98.2632,VALID,-0.118866,VALID,19.8865,VALID,14,VALID,0,
2008-10-24, 00:34:00,VALID,918.583,VALID,0,VALID,97.953,VALID,-0.0679233,VALID,19.8888,VALID,14,VALID,0,
2008-10-24, 00:35:00,VALID,918.558,VALID,0,VALID,97.7292,VALID,-0.0169808,VALID,19.9002,VALID,14,VALID,0,
2008-10-24, 00:36:00,VALID,918.537,VALID,0,VALID,97.4799,VALID,-0.0169808,VALID,19.9232,VALID,14,VALID,0,
2008-10-24, 00:37:00,VALID,918.509,VALID,0,VALID,97.5791,VALID,0,VALID,19.9559,VALID,327,VALID,0.101944,
2008-10-24, 00:38:00,VALID,918.485,VALID,0,VALID,97.6783,VALID,0,VALID,19.9913,VALID,211,VALID,0.0436046,
2008-10-24, 00:39:00,VALID,918.48,VALID,0,VALID,97.8398,VALID,-0.0339617,VALID,20.0113,VALID,210,VALID,0.000177557,
2008-10-24, 00:40:00,VALID,918.448,VALID,0,VALID,97.869,VALID,-0.0169808,VALID,20.0083,VALID,200,VALID,0.0280449,
2008-10-24, 00:41:00,VALID,918.452,VALID,0,VALID,98.0216,VALID,0,VALID,19.9624,VALID,200,VALID,0,
2008-10-24, 00:42:00,VALID,918.437,VALID,0,VALID,98.1958,VALID,-0.0509425,VALID,19.9334,VALID,197,VALID,0,
2008-10-24, 00:43:00,VALID,918.43,VALID,0,VALID,98.3128,VALID,-0.0169808,VALID,19.9077,VALID,191,VALID,0,
2008-10-24, 00:44:00,VALID,918.416,VALID,0,VALID,98.3891,VALID,0.0169808,VALID,19.8845,VALID,188,VALID,0.162464,
2008-10-24, 00:45:00,VALID,918.401,VALID,0,VALID,98.4298,VALID,-0.0169808,VALID,19.881,VALID,174,VALID,0.41311,
2008-10-24, 00:46:00,VALID,918.38,VALID,0,VALID,98.4553,VALID,-0.0169808,VALID,19.8745,VALID,168,VALID,0,
2008-10-24, 00:47:00,VALID,918.36,VALID,0,VALID,98.4807,VALID,0,VALID,19.8645,VALID,168,VALID,0.00152439,
2008-10-24, 00:48:00,VALID,918.343,VALID,0,VALID,98.5811,VALID,0,VALID,19.8615,VALID,168,VALID,0.00111607,
2008-10-24, 00:49:00,VALID,918.319,VALID,0,VALID,98.6689,VALID,-0.0169808,VALID,19.8715,VALID,165,VALID,0.0358665,
2008-10-24, 00:50:00,VALID,918.315,VALID,0,VALID,98.6651,VALID,-0.0169808,VALID,19.879,VALID,165,VALID,0,
2008-10-24, 00:51:00,VALID,918.303,VALID,0,VALID,98.5519,VALID,0,VALID,19.862,VALID,167,VALID,0.0688244,
2008-10-24, 00:52:00,VALID,918.296,VALID,0,VALID,98.5227,VALID,0,VALID,19.8653,VALID,171,VALID,0,
2008-10-24, 00:53:00,VALID,918.279,VALID,0,VALID,98.4781,VALID,-0.0339617,VALID,19.8488,VALID,178,VALID,0,
2008-10-24, 00:54:00,VALID,918.263,VALID,0,VALID,98.5506,VALID,-0.0169808,VALID,19.8263,VALID,174,VALID,0,
2008-10-24, 00:55:00,VALID,918.278,VALID,0,VALID,98.6816,VALID,-0.0509425,VALID,19.7904,VALID,170,VALID,0,
2008-10-24, 00:56:00,VALID,918.262,VALID,0,VALID,98.9079,VALID,-0.0509425,VALID,19.7709,VALID,154,VALID,0,
2008-10-24, 00:57:00,VALID,918.255,VALID,0,VALID,99.1941,VALID,0,VALID,19.7512,VALID,157,VALID,0,
2008-10-24, 00:58:00,VALID,918.231,VALID,0,VALID,99.3861,VALID,-0.0169808,VALID,19.7385,VALID,164,VALID,0,
2008-10-24, 00:59:00,VALID,918.222,VALID,0,VALID,99.6429,VALID,0,VALID,19.7058,VALID,156,VALID,0,
2008-10-24, 01:00:00,VALID,918.208,VALID,0,VALID,99.9161,VALID,0,VALID,19.6801,VALID,163,VALID,0,
2008-10-24, 01:01:00,VALID,918.162,VALID,0,VALID,100,VALID,-0.0169808,VALID,19.6579,VALID,156,VALID,0,
2008-10-24, 01:02:00,VALID,918.131,VALID,0,VALID,100,VALID,0,VALID,19.6247,VALID,156,VALID,0,
2008-10-24, 01:03:00,VALID,918.104,VALID,0,VALID,100,VALID,0,VALID,19.6055,VALID,151,VALID,0,
2008-10-24, 01:04:00,VALID,918.079,VALID,0,VALID,100,VALID,0,VALID,19.563,VALID,156,VALID,0.136083,
2008-10-24, 01:05:00,VALID,918.074,VALID,0,VALID,100,VALID,-0.0169808,VALID,19.5403,VALID,149,VALID,0,
2008-10-24, 01:06:00,VALID,918.056,VALID,0,VALID,100,VALID,-0.0169808,VALID,19.5276,VALID,140,VALID,0.00104167,
2008-10-24, 01:07:00,VALID,918.066,VALID,0,VALID,100,VALID,-0.0679233,VALID,19.4949,VALID,140,VALID,0,
2008-10-24, 01:08:00,VALID,918.058,VALID,0,VALID,100,VALID,-0.0169808,VALID,19.4757,VALID,139,VALID,0,
2008-10-24, 01:09:00,VALID,918.057,VALID,0,VALID,100,VALID,0,VALID,19.44,VALID,133,VALID,0,
2008-10-24, 01:10:00,VALID,918.056,VALID,0,VALID,100,VALID,-0.0169808,VALID,19.4076,VALID,125,VALID,0.244474,
2008-10-24, 01:11:00,VALID,918.055,VALID,0,VALID,100,VALID,-0.0509425,VALID,19.3946,VALID,134,VALID,0.0682745,
2008-10-24, 01:12:00,VALID,918.058,VALID,0,VALID,100,VALID,-0.0169808,VALID,19.3818,VALID,133,VALID,0,
2008-10-24, 01:13:00,VALID,918.05,VALID,0,VALID,100,VALID,0,VALID,19.3651,VALID,139,VALID,0.00117188,
2008-10-24, 01:14:00,VALID,918.062,VALID,0,VALID,100,VALID,-0.0339617,VALID,19.3621,VALID,135,VALID,0,
2008-10-24, 01:15:00,VALID,918.051,VALID,0,VALID,100,VALID,0.0169808,VALID,19.3554,VALID,133,VALID,0,
2008-10-24, 01:16:00,VALID,918.051,VALID,0,VALID,100,VALID,0,VALID,19.3457,VALID,143,VALID,0,
2008-10-24, 01:17:00,VALID,918.012,VALID,0,VALID,100,VALID,0,VALID,19.3554,VALID,142,VALID,0.0744792,
2008-10-24, 01:18:00,VALID,917.997,VALID,0,VALID,100,VALID,0,VALID,19.3621,VALID,144,VALID,0.135121,
2008-10-24, 01:19:00,VALID,917.995,VALID,0,VALID,100,VALID,-0.0679233,VALID,19.3626,VALID,141,VALID,0.15439,
2008-10-24, 01:20:00,VALID,917.986,VALID,0,VALID,100,VALID,-0.0849042,VALID,19.3571,VALID,134,VALID,0.0555753,
2008-10-24, 01:21:00,VALID,917.968,VALID,0,VALID,100,VALID,-0.101885,VALID,19.3274,VALID,138,VALID,0,
2008-10-24, 01:22:00,VALID,917.964,VALID,0,VALID,100,VALID,-0.118866,VALID,19.3015,VALID,131,VALID,0,
2008-10-24, 01:23:00,VALID,917.958,VALID,0,VALID,100,VALID,-0.118866,VALID,19.2952,VALID,139,VALID,0,
2008-10-24, 01:24:00,VALID,917.967,VALID,0,VALID,100,VALID,-0.0679233,VALID,19.2947,VALID,140,VALID,0,
2008-10-24, 01:25:00,VALID,917.961,VALID,0,VALID,100,VALID,0.101885,VALID,19.2826,VALID,147,VALID,0,
2008-10-24, 01:26:00,VALID,917.963,VALID,0,VALID,100,VALID,0.101885,VALID,19.2761,VALID,142,VALID,0,
2008-10-24, 01:27:00,VALID,917.965,VALID,0,VALID,100,VALID,0.118866,VALID,19.2761,VALID,138,VALID,0,
2008-10-24, 01:28:00,VALID,917.973,VALID,0,VALID,100,VALID,0.0849042,VALID,19.2663,VALID,137,VALID,0,
2008-10-24, 01:29:00,VALID,917.993,VALID,0,VALID,100,VALID,0.0679233,VALID,19.2566,VALID,131,VALID,0.0448289,
2008-10-24, 01:30:00,VALID,917.993,VALID,0,VALID,100,VALID,0.0509425,VALID,19.2631,VALID,138,VALID,0,
2008-10-24, 01:31:00,VALID,917.998,VALID,0,VALID,100,VALID,0.101885,VALID,19.2696,VALID,148,VALID,0,
2008-10-24, 01:32:00,VALID,917.994,VALID,0,VALID,100,VALID,0.0849042,VALID,19.2763,VALID,137,VALID,0,
2008-10-24, 01:33:00,VALID,917.976,VALID,0,VALID,100,VALID,0.0679233,VALID,19.2925,VALID,144,VALID,0,
2008-10-24, 01:34:00,VALID,917.959,VALID,0,VALID,100,VALID,0.0509425,VALID,19.3122,VALID,145,VALID,0,
2008-10-24, 01:35:00,VALID,917.959,VALID,0,VALID,100,VALID,-0.0169808,VALID,19.3197,VALID,148,VALID,0,
2008-10-24, 01:36:00,VALID,917.943,VALID,0,VALID,100,VALID,0,VALID,19.3489,VALID,151,VALID,0,
2008-10-24, 01:37:00,VALID,917.955,VALID,0,VALID,100,VALID,0,VALID,19.3522,VALID,141,VALID,0,
2008-10-24, 01:38:00,VALID,917.965,VALID,0,VALID,100,VALID,-0.0169808,VALID,19.3716,VALID,136,VALID,0,
2008-10-24, 01:39:00,VALID,917.971,VALID,0,VALID,100,VALID,-0.0339617,VALID,19.3878,VALID,135,VALID,0,
2008-10-24, 01:40:00,VALID,917.982,VALID,0,VALID,100,VALID,-0.0169808,VALID,19.3911,VALID,123,VALID,0,
2008-10-24, 01:41:00,VALID,917.985,VALID,0,VALID,100,VALID,0,VALID,19.3946,VALID,122,VALID,0,
2008-10-24, 01:42:00,VALID,918.008,VALID,0,VALID,100,VALID,-0.0339617,VALID,19.4076,VALID,107,VALID,0,
2008-10-24, 01:43:00,VALID,918.016,VALID,0,VALID,100,VALID,0,VALID,19.4173,VALID,116,VALID,0,
2008-10-24, 01:44:00,VALID,918.021,VALID,0,VALID,100,VALID,-0.0169808,VALID,19.43,VALID,115,VALID,0,
2008-10-24, 01:45:00,VALID,918.028,VALID,0,VALID,100,VALID,0,VALID,19.4365,VALID,90,VALID,0,
2008-10-24, 01:46:00,VALID,918.022,VALID,0,VALID,100,VALID,-0.0169808,VALID,19.433,VALID,88,VALID,0,
2008-10-24, 01:47:00,VALID,918.029,VALID,0,VALID,100,VALID,0.0169808,VALID,19.4238,VALID,87,VALID,0,
2008-10-24, 01:48:00,VALID,918.03,VALID,0,VALID,100,VALID,-0.0339617,VALID,19.414,VALID,81,VALID,0,
2008-10-24, 01:49:00,VALID,918.036,VALID,0,VALID,100,VALID,0,VALID,19.4103,VALID,87,VALID,0,
2008-10-24, 01:50:00,VALID,918.037,VALID,0,VALID,100,VALID,-0.0339617,VALID,19.4071,VALID,93,VALID,0,
2008-10-24, 01:51:00,VALID,918.04,VALID,0,VALID,100,VALID,0,VALID,19.4105,VALID,106,VALID,0,
2008-10-24, 01:52:00,VALID,918.031,VALID,0,VALID,100,VALID,0,VALID,19.4105,VALID,110,VALID,0,
2008-10-24, 01:53:00,VALID,918.026,VALID,0,VALID,100,VALID,-0.0169808,VALID,19.3941,VALID,111,VALID,0.127308,
2008-10-24, 01:54:00,VALID,918.036,VALID,0,VALID,100,VALID,-0.0169808,VALID,19.3741,VALID,119,VALID,0,
2008-10-24, 01:55:00,VALID,918.032,VALID,0,VALID,100,VALID,-0.0339617,VALID,19.3714,VALID,121,VALID,0,
2008-10-24, 01:56:00,VALID,918.01,VALID,0,VALID,100,VALID,0,VALID,19.3489,VALID,119,VALID,0,
2008-10-24, 01:57:00,VALID,917.998,VALID,0,VALID,100,VALID,0.0169808,VALID,19.3459,VALID,122,VALID,0,
2008-10-24, 01:58:00,VALID,917.989,VALID,0,VALID,100,VALID,-0.0679233,VALID,19.3294,VALID,121,VALID,0,
2008-10-24, 01:59:00,VALID,917.986,VALID,0,VALID,100,VALID,-0.0509425,VALID,19.3162,VALID,121,VALID,0,
2008-10-24, 02:00:00,VALID,917.971,VALID,0,VALID,100,VALID,-0.0339617,VALID,19.3167,VALID,120,VALID,0,
2008-10-24, 02:01:00,VALID,917.965,VALID,0,VALID,100,VALID,-0.0509425,VALID,19.3135,VALID,120,VALID,0,
2008-10-24, 02:02:00,VALID,917.952,VALID,0,VALID,100,VALID,-0.0679233,VALID,19.32,VALID,122,VALID,0,
2008-10-24, 02:03:00,VALID,917.957,VALID,0,VALID,100,VALID,-0.0849042,VALID,19.3102,VALID,124,VALID,0,
2008-10-24, 02:04:00,VALID,917.935,VALID,0,VALID,100,VALID,-0.0679233,VALID,19.2875,VALID,124,VALID,0,
2008-10-24, 02:05:00,VALID,917.923,VALID,0,VALID,100,VALID,-0.135847,VALID,19.2822,VALID,112,VALID,0.00272529,
2008-10-24, 02:06:00,VALID,917.92,VALID,0,VALID,100,VALID,-0.135847,VALID,19.2595,VALID,116,VALID,0.0559896,
2008-10-24, 02:07:00,VALID,917.919,VALID,0,VALID,100,VALID,-0.135847,VALID,19.2563,VALID,116,VALID,0.0331101,
2008-10-24, 02:08:00,VALID,917.927,VALID,0,VALID,100,VALID,-0.101885,VALID,19.25,VALID,117,VALID,0,
2008-10-24, 02:09:00,VALID,917.945,VALID,0,VALID,100,VALID,-0.169808,VALID,19.2406,VALID,112,VALID,0,
2008-10-24, 02:10:00,VALID,917.954,VALID,0,VALID,100,VALID,-0.135847,VALID,19.2436,VALID,102,VALID,0,
2008-10-24, 02:11:00,VALID,917.95,VALID,0,VALID,100,VALID,-0.118866,VALID,19.2403,VALID,102,VALID,0,
2008-10-24, 02:12:00,VALID,917.949,VALID,0,VALID,100,VALID,-0.101885,VALID,19.253,VALID,102,VALID,0,
2008-10-24, 02:13:00,VALID,917.95,VALID,0,VALID,100,VALID,-0.101885,VALID,19.2563,VALID,102,VALID,0,
2008-10-24, 02:14:00,VALID,917.944,VALID,0,VALID,100,VALID,-0.101885,VALID,19.2628,VALID,102,VALID,0,
2008-10-24, 02:15:00,VALID,917.945,VALID,0,VALID,100,VALID,-0.101885,VALID,19.2693,VALID,102,VALID,0,
2008-10-24, 02:16:01,VALID,917.939,VALID,0,VALID,100,VALID,-0.118866,VALID,19.266,VALID,102,VALID,0,
2008-10-24, 02:17:00,VALID,917.956,VALID,0,VALID,100,VALID,-0.101885,VALID,19.2528,VALID,102,VALID,0,
2008-10-24, 02:18:00,VALID,917.936,VALID,0,VALID,100,VALID,-0.118866,VALID,19.2468,VALID,102,VALID,0,
2008-10-24, 02:19:00,VALID,917.92,VALID,0,VALID,100,VALID,-0.0849042,VALID,19.2264,VALID,102,VALID,0,
2008-10-24, 02:20:00,VALID,917.901,VALID,0,VALID,100,VALID,-0.0169808,VALID,19.2191,VALID,102,VALID,0,
2008-10-24, 02:21:00,VALID,917.89,VALID,0,VALID,100,VALID,-0.0679233,VALID,19.1999,VALID,102,VALID,0,
2008-10-24, 02:22:00,VALID,917.891,VALID,0,VALID,100,VALID,-0.0509425,VALID,19.1802,VALID,102,VALID,0,
2008-10-24, 02:23:00,VALID,917.898,VALID,0,VALID,100,VALID,-0.0339617,VALID,19.1867,VALID,102,VALID,0,
2008-10-24, 02:24:00,VALID,917.901,VALID,0,VALID,100,VALID,-0.0849042,VALID,19.1999,VALID,100,VALID,0,
2008-10-24, 02:25:01,VALID,917.9,VALID,0,VALID,100,VALID,-0.0339617,VALID,19.1932,VALID,98,VALID,0,
2008-10-24, 02:26:01,VALID,917.898,VALID,0,VALID,100,VALID,-0.0169808,VALID,19.154,VALID,98,VALID,0,
2008-10-24, 02:27:00,VALID,917.903,VALID,0,VALID,100,VALID,-0.0509425,VALID,19.1343,VALID,98,VALID,0,
2008-10-24, 02:28:00,VALID,917.913,VALID,0,VALID,100,VALID,-0.0509425,VALID,19.1318,VALID,98,VALID,0,
2008-10-24, 02:29:01,VALID,917.927,VALID,0,VALID,100,VALID,-0.0509425,VALID,19.1151,VALID,98,VALID,0,
2008-10-24, 02:30:00,VALID,917.945,VALID,0,VALID,100,VALID,-0.0339617,VALID,19.1121,VALID,98,VALID,0,
2008-10-24, 02:31:00,VALID,917.944,VALID,0,VALID,100,VALID,-0.0339617,VALID,19.1153,VALID,80,VALID,0,
2008-10-24, 02:32:01,VALID,917.943,VALID,0,VALID,100,VALID,-0.0339617,VALID,19.1058,VALID,45,VALID,0,
2008-10-24, 02:33:01,VALID,917.947,VALID,0,VALID,100,VALID,-0.0169808,VALID,19.1056,VALID,45,VALID,0,
2008-10-24, 02:34:00,VALID,917.951,VALID,0,VALID,100,VALID,-0.0679233,VALID,19.1186,VALID,45,VALID,0,
2008-10-24, 02:35:00,VALID,917.958,VALID,0,VALID,100,VALID,-0.0679233,VALID,19.1283,VALID,45,VALID,0,
2008-10-24, 02:36:00,VALID,917.946,VALID,0,VALID,100,VALID,-0.0849042,VALID,19.1445,VALID,42,VALID,0.0591518,
2008-10-24, 02:37:01,VALID,917.94,VALID,0,VALID,100,VALID,-0.0169808,VALID,19.148,VALID,32,VALID,0,
2008-10-24, 02:38:00,VALID,917.95,VALID,0,VALID,100,VALID,-0.0509425,VALID,19.1605,VALID,32,VALID,0,
2008-10-24, 02:39:00,VALID,917.954,VALID,0,VALID,100,VALID,-0.0339617,VALID,19.1837,VALID,32,VALID,0,
2008-10-24, 02:40:01,VALID,917.962,VALID,0,VALID,100,VALID,-0.0849042,VALID,19.2062,VALID,32,VALID,0,
2008-10-24, 02:41:00,VALID,917.965,VALID,0,VALID,100,VALID,-0.0509425,VALID,19.2256,VALID,32,VALID,0,
2008-10-24, 02:42:00,VALID,917.961,VALID,0,VALID,100,VALID,-0.0679233,VALID,19.2291,VALID,32,VALID,0,
2008-10-24, 02:43:01,VALID,917.958,VALID,0,VALID,100,VALID,-0.0509425,VALID,19.2094,VALID,32,VALID,0,
2008-10-24, 02:44:01,VALID,917.956,VALID,0.2,VALID,100,VALID,-0.0339617,VALID,19.2094,VALID,32,VALID,0,
2008-10-24, 02:45:00,VALID,917.956,VALID,0,VALID,100,VALID,-0.0339617,VALID,19.2127,VALID,32,VALID,0,
2008-10-24, 02:46:01,VALID,917.943,VALID,0,VALID,100,VALID,-0.0339617,VALID,19.2029,VALID,32,VALID,0,
2008-10-24, 02:47:00,VALID,917.932,VALID,0,VALID,100,VALID,-0.0339617,VALID,19.1867,VALID,32,VALID,0,
2008-10-24, 02:48:00,VALID,917.935,VALID,0,VALID,100,VALID,-0.0339617,VALID,19.1735,VALID,32,VALID,0,
2008-10-24, 02:49:01,VALID,917.932,VALID,0,VALID,100,VALID,0,VALID,19.1737,VALID,32,VALID,0,
2008-10-24, 02:50:00,VALID,917.935,VALID,0,VALID,100,VALID,0,VALID,19.1603,VALID,32,VALID,0,
2008-10-24, 02:51:00,VALID,917.935,VALID,0,VALID,100,VALID,-0.0169808,VALID,19.1607,VALID,32,VALID,0,
2008-10-24, 02:52:00,VALID,917.938,VALID,0,VALID,100,VALID,-0.0509425,VALID,19.1577,VALID,32,VALID,0.0697115,
2008-10-24, 02:53:00,VALID,917.944,VALID,0,VALID,100,VALID,-0.0169808,VALID,19.1577,VALID,32,VALID,0,
2008-10-24, 02:54:01,VALID,917.932,VALID,0,VALID,100,VALID,-0.0679233,VALID,19.1902,VALID,50,VALID,0,
2008-10-24, 02:55:00,VALID,917.932,VALID,0,VALID,100,VALID,-0.0169808,VALID,19.2483,VALID,65,VALID,0,
2008-10-24, 02:56:00,VALID,917.919,VALID,0,VALID,100,VALID,-0.0509425,VALID,19.2865,VALID,65,VALID,0,
2008-10-24, 02:57:00,VALID,917.922,VALID,0,VALID,100,VALID,-0.0679233,VALID,19.3294,VALID,65,VALID,0,
2008-10-24, 02:58:00,VALID,917.894,VALID,0,VALID,100,VALID,-0.0509425,VALID,19.3848,VALID,65,VALID,0,
2008-10-24, 02:59:00,VALID,917.889,VALID,0,VALID,100,VALID,-0.0339617,VALID,19.4138,VALID,65,VALID,0,
2008-10-24, 03:00:01,VALID,917.877,VALID,0,VALID,100,VALID,-0.0169808,VALID,19.4138,VALID,65,VALID,0,
2008-10-24, 03:01:00,VALID,917.883,VALID,0,VALID,100,VALID,-0.0679233,VALID,19.3814,VALID,65,VALID,0,
2008-10-24, 03:02:00,VALID,917.883,VALID,0,VALID,100,VALID,-0.0509425,VALID,19.3487,VALID,65,VALID,0,
2008-10-24, 03:03:01,VALID,917.878,VALID,0.2,VALID,100,VALID,-0.0169808,VALID,19.3327,VALID,65,VALID,0,
2008-10-24, 03:04:00,VALID,917.885,VALID,0,VALID,100,VALID,-0.0339617,VALID,19.3165,VALID,65,VALID,0,
2008-10-24, 03:05:00,VALID,917.897,VALID,0,VALID,100,VALID,-0.0849042,VALID,19.3132,VALID,65,VALID,0,
2008-10-24, 03:06:00,VALID,917.908,VALID,0,VALID,100,VALID,-0.0849042,VALID,19.3067,VALID,65,VALID,0,
2008-10-24, 03:07:01,VALID,917.901,VALID,0,VALID,100,VALID,-0.0679233,VALID,19.3135,VALID,65,VALID,0,
2008-10-24, 03:08:00,VALID,917.905,VALID,0,VALID,100,VALID,-0.0339617,VALID,19.3197,VALID,65,VALID,0,
2008-10-24, 03:09:01,VALID,917.907,VALID,0,VALID,100,VALID,0,VALID,19.3292,VALID,65,VALID,0,
2008-10-24, 03:10:01,VALID,917.917,VALID,0,VALID,100,VALID,-0.0509425,VALID,19.306,VALID,65,VALID,0,
2008-10-24, 03:11:00,VALID,917.93,VALID,0,VALID,100,VALID,-0.0509425,VALID,19.2905,VALID,65,VALID,0,
2008-10-24, 03:12:00,VALID,917.939,VALID,0,VALID,100,VALID,-0.0509425,VALID,19.2676,VALID,65,VALID,0,
2008-10-24, 03:13:01,VALID,917.949,VALID,0,VALID,100,VALID,-0.0169808,VALID,19.2483,VALID,65,VALID,0,
2008-10-24, 03:14:01,VALID,917.955,VALID,0,VALID,100,VALID,-0.0509425,VALID,19.2159,VALID,65,VALID,0,
2008-10-24, 03:15:01,VALID,917.941,VALID,0,VALID,100,VALID,-0.0339617,VALID,19.1668,VALID,65,VALID,0,
2008-10-24, 03:16:01,VALID,917.958,VALID,0,VALID,100,VALID,0,VALID,19.1508,VALID,65,VALID,0,
2008-10-24, 03:17:01,VALID,917.944,VALID,0,VALID,100,VALID,-0.0339617,VALID,19.1508,VALID,65,VALID,0,
2008-10-24, 03:18:01,VALID,917.938,VALID,0,VALID,100,VALID,-0.0169808,VALID,19.1869,VALID,65,VALID,0,
2008-10-24, 03:19:01,VALID,917.946,VALID,0,VALID,100,VALID,-0.0679233,VALID,19.1997,VALID,65,VALID,0,
2008-10-24, 03:20:00,VALID,917.956,VALID,0,VALID,100,VALID,-0.0169808,VALID,19.1989,VALID,65,VALID,0,
2008-10-24, 03:21:00,VALID,917.959,VALID,0,VALID,100,VALID,0,VALID,19.2127,VALID,65,VALID,0,
2008-10-24, 03:22:00,VALID,917.955,VALID,0,VALID,100,VALID,-0.0169808,VALID,19.2157,VALID,65,VALID,0,
2008-10-24, 03:23:00,VALID,917.956,VALID,0,VALID,100,VALID,0,VALID,19.2122,VALID,65,VALID,0,
2008-10-24, 03:24:00,VALID,917.945,VALID,0,VALID,100,VALID,-0.0169808,VALID,19.2256,VALID,65,VALID,0,
2008-10-24, 03:25:00,VALID,917.939,VALID,0,VALID,100,VALID,-0.0169808,VALID,19.1997,VALID,65,VALID,0,
2008-10-24, 03:26:00,VALID,917.952,VALID,0,VALID,100,VALID,-0.0169808,VALID,19.1997,VALID,65,VALID,0,
2008-10-24, 03:27:00,VALID,917.951,VALID,0,VALID,100,VALID,0,VALID,19.1897,VALID,65,VALID,0,
2008-10-24, 03:28:00,VALID,917.93,VALID,0,VALID,100,VALID,0.0169808,VALID,19.1832,VALID,65,VALID,0,
2008-10-24, 03:29:00,VALID,917.909,VALID,0,VALID,100,VALID,0,VALID,19.18,VALID,79,VALID,0,
2008-10-24, 03:30:00,VALID,917.89,VALID,0,VALID,100,VALID,-0.0169808,VALID,19.157,VALID,107,VALID,0,
2008-10-24, 03:31:00,VALID,917.883,VALID,0,VALID,100,VALID,0,VALID,19.1445,VALID,117,VALID,0,
2008-10-24, 03:32:00,VALID,917.888,VALID,0,VALID,100,VALID,-0.0509425,VALID,19.1181,VALID,152,VALID,0.116044,
2008-10-24, 03:33:00,VALID,917.89,VALID,0,VALID,100,VALID,-0.0509425,VALID,19.1153,VALID,174,VALID,0.784375,
2008-10-24, 03:34:00,VALID,917.877,VALID,0,VALID,100,VALID,-0.0509425,VALID,19.1118,VALID,166,VALID,0.949929,
2008-10-24, 03:35:00,VALID,917.892,VALID,0,VALID,100,VALID,-0.0169808,VALID,19.0991,VALID,153,VALID,0.157227,
2008-10-24, 03:36:00,VALID,917.884,VALID,0,VALID,100,VALID,-0.0169808,VALID,19.0831,VALID,155,VALID,0,
2008-10-24, 03:37:00,VALID,917.902,VALID,0,VALID,100,VALID,-0.0339617,VALID,19.0766,VALID,165,VALID,0,
2008-10-24, 03:38:00,VALID,917.904,VALID,0.2,VALID,100,VALID,-0.0339617,VALID,19.05,VALID,165,VALID,0.0012718,
2008-10-24, 03:39:00,VALID,917.897,VALID,0,VALID,100,VALID,-0.0849042,VALID,19.047,VALID,163,VALID,0,
2008-10-24, 03:40:00,VALID,917.889,VALID,0,VALID,100,VALID,-0.0339617,VALID,19.0537,VALID,163,VALID,0,
2008-10-24, 03:41:00,VALID,917.893,VALID,0,VALID,100,VALID,-0.0679233,VALID,19.0437,VALID,158,VALID,0,
2008-10-24, 03:42:00,VALID,917.898,VALID,0,VALID,100,VALID,-0.0509425,VALID,19.0245,VALID,154,VALID,0,
2008-10-24, 03:43:00,VALID,917.915,VALID,0,VALID,100,VALID,-0.0169808,VALID,19.0213,VALID,152,VALID,0,
2008-10-24, 03:44:00,VALID,917.918,VALID,0,VALID,100,VALID,-0.0509425,VALID,19.0076,VALID,153,VALID,0,
2008-10-24, 03:45:00,VALID,917.931,VALID,0,VALID,100,VALID,0,VALID,18.9976,VALID,159,VALID,0,
2008-10-24, 03:46:00,VALID,917.92,VALID,0,VALID,100,VALID,0,VALID,19.011,VALID,164,VALID,0.183293,
2008-10-24, 03:47:00,VALID,917.922,VALID,0,VALID,100,VALID,0,VALID,19.0143,VALID,168,VALID,0,
2008-10-24, 03:48:00,VALID,917.937,VALID,0,VALID,100,VALID,0,VALID,19.0143,VALID,164,VALID,0,
2008-10-24, 03:49:00,VALID,917.945,VALID,0,VALID,100,VALID,-0.0169808,VALID,19.0083,VALID,156,VALID,0,
2008-10-24, 03:50:00,VALID,917.94,VALID,0,VALID,100,VALID,0,VALID,18.9983,VALID,149,VALID,0,